1511600401.0,17947,11.94,73288.0,1.89,-25.97,-25.87,0,*70
1511600402.24,17948,11.94,73280.5,1.91,-26.03,-25.81,0,*7E
1511600403.47,17949,11.94,73278.0,1.89,-25.65,-25.49,0,*71
1511600404.67,17950,11.94,73284.3,1.91,-25.35,-25.13,0,*7A
1511600405.94,17951,11.94,73280.8,1.89,-25.45,-25.29,0,*7C
1511600407.2,17952,11.94,73278.5,1.91,-25.97,-25.75,0,*70
1511600408.45,17953,11.94,73274.5,1.89,-26.29,-26.03,0,*7C
1511600409.74,17954,11.94,73272.5,1.89,-26.33,-26.13,0,*71
1511600411.02,17955,11.94,73270.8,1.89,-26.17,-25.97,0,*79
1511600412.27,17956,11.94,73268.8,1.89,-26.29,-26.03,0,*79
1511600413.55,17957,11.94,73264.3,1.89,-26.17,-25.81,0,*7C
1511600414.79,17958,11.94,73262.3,1.89,-26.03,-25.65,0,*7C
1511600416.07,17959,11.94,73260.3,1.85,-25.81,-25.55,0,*7B
1511600417.29,17960,11.94,73256.0,1.83,-25.81,-25.39,0,*7D
1511600418.55,17961,11.94,73250.8,1.83,-25.81,-25.55,0,*76
1511600419.8,17962,11.94,73244.8,1.85,-25.91,-25.71,0,*74
1511600421.06,17963,11.94,73238.5,1.85,-25.81,-25.49,0,*7F
1511600422.31,17964,11.94,73226.0,1.85,-26.03,-25.81,0,*75
1511600423.55,17965,11.88,73218.0,1.83,-25.87,-25.55,0,*74
1511600424.77,17966,11.94,73212.8,1.85,-25.65,-25.39,0,*77
1511600425.97,17967,11.94,73212.5,1.83,-25.35,-25.09,0,*76
1511600427.17,17968,11.94,73210.5,1.83,-26.23,-25.91,0,*7C
1511600428.39,17969,11.88,73218.5,1.85,-26.07,-25.87,0,*7A
1511600429.59,17970,11.94,73224.0,1.83,-25.23,-24.93,0,*75
1511600430.83,17971,11.94,73226.0,1.85,-25.19,-24.87,0,*7E
1511600432.03,17972,11.94,73230.8,1.83,-25.49,-25.23,0,*71
1511600433.25,17973,11.88,73228.5,1.83,-25.23,-25.03,0,*7E
1511600434.48,17974,11.94,73240.0,1.83,-25.55,-25.23,0,*7A
1511600435.69,17975,11.94,73252.3,1.83,-25.49,-25.23,0,*76
1511600436.88,17976,11.94,73254.3,1.83,-25.09,-24.93,0,*7B
1511600438.08,17977,11.88,73250.5,1.83,-25.39,-25.19,0,*7A
1511600439.31,17978,11.88,73246.5,1.85,-25.39,-25.23,0,*7A
1511600440.57,17979,11.94,73250.8,1.83,-24.71,-24.41,0,*75
1511600441.83,17980,11.88,73248.0,1.85,-24.51,-24.21,0,*71
1511600443.1,17981,11.88,73250.5,1.85,-25.03,-24.71,0,*73
1511600444.37,17982,11.88,73244.0,1.85,-25.03,-24.67,0,*77
1511600445.63,17983,11.94,73248.3,1.85,-24.71,-24.35,0,*75
1511600446.89,17984,11.88,73248.5,1.85,-24.51,-24.21,0,*75
1511600448.14,17985,11.88,73250.0,1.85,-24.25,-23.79,0,*7D
1511600449.39,17986,11.88,73250.0,1.89,-24.21,-23.89,0,*79
1511600450.62,17987,11.88,73250.5,1.91,-24.47,-24.15,0,*73
1511600451.86,17988,11.88,73250.3,1.91,-24.83,-24.47,0,*73
1511600453.11,17989,11.88,73246.3,1.91,-25.03,-24.83,0,*73
1511600454.33,17990,11.88,73244.8,1.91,-25.29,-24.97,0,*76
1511600455.55,17991,11.88,73250.0,1.91,-25.29,-24.97,0,*77
1511600456.78,17992,11.88,73250.0,1.89,-25.35,-25.13,0,*7D
1511600458.05,17993,11.88,73246.3,1.89,-25.29,-24.87,0,*7D
1511600459.29,17994,11.88,73244.3,1.89,-25.19,-24.87,0,*79
1511600460.54,17995,11.88,73244.3,1.91,-25.29,-24.87,0,*72
1511600461.81,17996,11.88,73244.8,1.89,-25.03,-24.83,0,*74
1511600463.08,17997,11.88,73244.5,1.89,-25.29,-24.87,0,*79
1511600464.33,17998,11.88,73242.5,1.91,-25.03,-24.67,0,*79
1511600465.56,17999,11.88,73244.8,1.89,-25.13,-24.77,0,*71
1511600466.8,18000,11.88,73246.5,1.89,-25.19,-24.83,0,*76
1511600468.0,18001,11.88,73242.8,1.91,-25.65,-25.35,0,*79
1511600469.23,18002,11.88,73242.8,1.91,-25.29,-24.97,0,*7B
1511600470.5,18003,11.88,73238.8,1.89,-25.29,-24.87,0,*72
1511600471.69,18004,11.88,73236.8,1.91,-25.35,-24.97,0,*70
1511600472.92,18005,11.88,73232.0,1.91,-25.13,-24.83,0,*70
1511600474.19,18006,11.88,73232.0,1.89,-25.29,-24.83,0,*73
1511600475.42,18007,11.88,73232.3,1.91,-25.13,-24.83,0,*72
1511600476.67,18008,11.88,73234.3,1.91,-25.03,-24.67,0,*76
1511600477.87,18009,11.88,73238.8,1.91,-25.19,-24.77,0,*7D
1511600479.12,18010,11.88,73238.3,1.91,-25.03,-24.83,0,*75
1511600480.36,18011,11.88,73242.5,1.89,-25.45,-25.19,0,*7D
1511600481.62,18012,11.88,73238.3,1.89,-26.03,-25.75,0,*75
1511600482.9,18013,11.88,73246.8,1.89,-25.97,-25.75,0,*7A
1511600484.15,18014,11.88,73244.0,1.89,-25.75,-25.35,0,*75
1511600485.39,18015,11.88,73244.8,1.89,-25.87,-25.61,0,*78
1511600486.64,18016,11.88,73238.5,1.89,-25.97,-25.65,0,*7E
1511600487.89,18017,11.88,73226.5,1.85,-26.39,-25.81,0,*7E
1511600489.14,18018,11.88,73228.8,1.85,-26.17,-25.87,0,*7B
1511600490.4,18019,11.88,73224.3,1.85,-25.81,-25.49,0,*74
1511600491.65,18020,11.88,73214.0,1.85,-26.81,-26.65,0,*70
1511600492.9,18021,11.88,73222.8,1.81,-27.23,-26.87,0,*70
1511600494.11,18022,11.88,73226.8,1.79,-27.07,-26.61,0,*7A
1511600495.34,18023,11.88,73230.8,1.79,-27.13,-26.81,0,*70
1511600496.63,18024,11.88,73228.5,1.77,-26.77,-26.33,0,*73
1511600497.87,18025,11.88,73222.3,1.75,-26.65,-26.33,0,*73
1511600499.12,18026,11.88,73222.8,1.75,-26.97,-26.55,0,*7D
1511600500.33,18027,11.81,73222.8,1.75,-26.65,-26.23,0,*70
1511600501.56,18028,11.88,73234.0,1.75,-26.55,-26.07,0,*7A
1511600502.79,18029,11.88,73234.8,1.73,-26.39,-26.03,0,*73
1511600504.05,18030,11.88,73240.0,1.73,-26.03,-25.71,0,*74
1511600505.28,18031,11.88,73228.5,1.73,-25.65,-25.23,0,*71
1511600506.5,18032,11.81,73220.3,1.73,-25.39,-25.09,0,*73
1511600507.75,18033,11.81,73218.3,1.73,-25.23,-24.87,0,*7E
1511600508.97,18034,11.81,73222.5,1.73,-26.23,-25.87,0,*7B
1511600510.2,18035,11.81,73224.8,1.73,-26.49,-26.07,0,*7D
1511600511.42,18036,11.88,73244.0,1.73,-26.23,-26.03,0,*76
1511600512.67,18037,11.88,73242.0,1.71,-26.71,-26.45,0,*70
1511600513.89,18038,11.81,73246.5,1.71,-26.61,-26.23,0,*7E
1511600515.14,18039,11.81,73244.0,1.71,-25.87,-25.45,0,*77
1511600516.37,18040,11.81,73238.8,1.69,-25.87,-25.55,0,*71
1511600517.62,18041,11.88,73230.0,1.67,-25.61,-25.29,0,*7D
1511600518.82,18042,11.88,73220.3,1.69,-25.23,-24.93,0,*76
1511600520.04,18043,11.81,73208.8,1.69,-25.45,-25.09,0,*75
1511600521.29,18044,11.81,73204.3,1.67,-25.81,-25.39,0,*77
1511600522.52,18045,11.81,73206.5,1.69,-26.07,-25.71,0,*79
1511600523.74,18046,11.81,73220.0,1.69,-26.13,-25.87,0,*76
1511600524.96,18047,11.81,73230.0,1.69,-25.91,-25.45,0,*70
1511600526.24,18048,11.81,73238.0,1.71,-25.75,-25.29,0,*76
1511600527.52,18049,11.88,73240.8,1.67,-26.33,-25.97,0,*74
1511600528.77,18050,11.81,73230.0,1.67,-25.91,-25.45,0,*78
1511600530.03,18051,11.81,73214.8,1.67,-25.97,-25.61,0,*79
1511600531.24,18052,11.81,73214.8,1.67,-25.35,-24.93,0,*7E
1511600532.5,18053,11.81,73218.8,1.67,-25.97,-25.61,0,*7B
1511600533.77,18054,11.81,73224.0,1.67,-25.81,-25.45,0,*7D
1511600535.01,18055,11.81,73226.3,1.67,-25.81,-25.35,0,*7B
1511600536.27,18056,11.81,73218.5,1.67,-25.49,-25.29,0,*71
1511600537.48,18057,11.81,73226.3,1.67,-25.35,-24.97,0,*7F
1511600538.72,18058,11.81,73236.3,1.67,-25.45,-24.97,0,*77
1511600539.95,18059,11.81,73230.5,1.67,-25.49,-25.13,0,*77
1511600541.21,18060,11.81,73218.5,1.67,-25.55,-25.13,0,*70
1511600542.44,18061,11.81,73224.3,1.69,-25.55,-25.13,0,*7F
1511600543.66,18062,11.81,73232.8,1.67,-25.61,-25.13,0,*75
1511600544.91,18063,11.81,73232.8,1.69,-25.75,-25.45,0,*7C
1511600546.16,18064,11.81,73242.0,1.67,-25.75,-25.35,0,*72
1511600547.38,18065,11.81,73240.5,1.67,-24.97,-24.61,0,*7E
1511600548.65,18066,11.81,73238.0,1.67,-25.75,-25.29,0,*7D
1511600549.88,18067,11.81,73240.3,1.69,-25.75,-25.39,0,*73
1511600551.12,18068,11.81,73240.3,1.67,-25.29,-24.93,0,*7A
1511600552.36,18069,11.81,73232.8,1.67,-25.45,-24.97,0,*75
1511600553.58,18070,11.81,73236.3,1.67,-25.35,-24.97,0,*7A
1511600554.8,18071,11.81,73234.3,1.69,-25.29,-24.93,0,*7C
1511600556.07,18072,11.81,73230.5,1.67,-25.45,-24.87,0,*7E
1511600557.31,18073,11.81,73228.8,1.67,-25.29,-24.77,0,*7A
1511600558.53,18074,11.81,73232.0,1.69,-25.29,-24.93,0,*79
1511600559.78,18075,11.81,73236.3,1.69,-25.75,-25.45,0,*7B
1511600560.98,18076,11.81,73234.8,1.69,-25.61,-25.13,0,*7E
1511600562.19,18077,11.81,73246.3,1.69,-26.03,-25.61,0,*7D
1511600563.45,18078,11.81,73248.5,1.69,-25.71,-25.29,0,*78
1511600564.68,18079,11.81,73254.8,1.69,-25.71,-25.13,0,*70
1511600565.91,18080,11.81,73250.8,1.67,-25.49,-25.09,0,*78
1511600567.18,18081,11.81,73248.0,1.67,-25.75,-25.29,0,*74
1511600568.43,18082,11.81,73252.3,1.65,-25.81,-25.29,0,*7E
1511600569.65,18083,11.81,73256.5,1.67,-25.65,-25.35,0,*7A
1511600570.87,18084,11.81,73248.3,1.67,-25.35,-24.97,0,*71
1511600572.09,18085,11.81,73248.3,1.67,-25.61,-25.19,0,*76
1511600573.33,18086,11.81,73248.8,1.67,-25.45,-24.97,0,*74
1511600574.56,18087,11.81,73244.5,1.67,-25.49,-25.13,0,*74
1511600575.78,18088,11.81,73246.8,1.67,-25.65,-25.19,0,*7F
1511600577.01,18089,11.81,73234.0,1.69,-25.71,-25.13,0,*7F
1511600578.23,18090,11.81,73250.0,1.67,-25.65,-25.19,0,*76
1511600579.46,18091,11.75,73242.8,1.67,-25.61,-25.13,0,*79
1511600580.68,18092,11.75,73240.0,1.67,-25.61,-25.13,0,*7A
1511600581.9,18093,11.81,73242.8,1.67,-25.65,-25.35,0,*7B
1511600583.15,18094,11.81,73236.0,1.67,-25.65,-25.29,0,*71
1511600584.35,18095,11.75,73224.8,1.69,-25.39,-24.93,0,*77
1511600585.57,18096,11.75,73236.5,1.67,-25.61,-25.19,0,*74
1511600586.8,18097,11.75,73236.0,1.67,-25.49,-25.13,0,*75
1511600588.02,18098,11.81,73242.8,1.67,-25.91,-25.35,0,*7B
1511600589.26,18099,11.75,73240.5,1.67,-25.13,-24.67,0,*76
1511600590.51,18100,11.75,73244.8,1.67,-24.67,-24.31,0,*76
1511600591.73,18101,11.75,73244.5,1.67,-24.77,-24.31,0,*76
1511600592.95,18102,11.81,73250.8,1.69,-25.23,-24.87,0,*76
1511600594.18,18103,11.75,73244.3,1.67,-25.49,-25.09,0,*72
1511600595.42,18104,11.75,73242.5,1.67,-25.45,-24.93,0,*7B
1511600596.64,18105,11.75,73242.8,1.69,-25.03,-24.61,0,*7B
1511600597.89,18106,11.75,73240.3,1.67,-25.13,-24.67,0,*71
1511600599.13,18107,11.75,73246.3,1.69,-25.29,-24.87,0,*79
1511600600.35,18108,11.75,73250.8,1.69,-25.03,-24.57,0,*73
1511600601.58,18109,11.75,73250.0,1.69,-24.77,-24.25,0,*75
1511600602.84,18110,11.75,73250.5,1.69,-24.71,-24.25,0,*7B
1511600604.07,18111,11.75,73254.3,1.71,-24.77,-24.31,0,*70
1511600605.3,18112,11.75,73252.8,1.73,-24.57,-24.05,0,*74
1511600606.58,18113,11.75,73250.3,1.71,-24.71,-24.25,0,*71
1511600607.81,18114,11.75,73252.5,1.73,-24.57,-24.05,0,*72
1511600609.06,18115,11.75,73256.3,1.73,-24.51,-24.11,0,*70
1511600610.28,18116,11.75,73254.5,1.73,-24.57,-24.05,0,*70
1511600611.55,18117,11.75,73256.5,1.73,-24.67,-24.11,0,*77
1511600612.78,18118,11.75,73254.8,1.77,-24.97,-24.61,0,*74
1511600614.0,18119,11.75,73242.5,1.75,-24.57,-24.11,0,*7C
1511600615.23,18120,11.75,73238.8,1.75,-24.97,-24.41,0,*7F
1511600616.5,18121,11.75,73230.8,1.77,-25.45,-25.03,0,*75
1511600617.75,18122,11.75,73224.8,1.77,-25.45,-24.97,0,*7A
1511600618.99,18123,11.75,73228.5,1.77,-25.49,-25.13,0,*7A
1511600620.22,18124,11.75,73232.8,1.77,-25.65,-25.19,0,*79
1511600621.44,18125,11.75,73236.8,1.75,-25.09,-24.67,0,*78
1511600622.69,18126,11.75,73236.3,1.77,-24.83,-24.35,0,*7D
1511600623.94,18127,11.75,73236.0,1.77,-25.29,-24.93,0,*71
1511600625.2,18128,11.75,73240.5,1.77,-25.49,-25.03,0,*70
1511600626.45,18129,11.75,73244.5,1.77,-25.81,-25.35,0,*70
1511600627.7,18130,11.75,73246.0,1.77,-25.19,-24.67,0,*7F
1511600628.95,18131,11.75,73252.0,1.77,-25.29,-24.77,0,*7C
1511600630.18,18132,11.75,73250.3,1.75,-25.39,-25.03,0,*7E
1511600631.46,18133,11.75,73248.3,1.77,-25.81,-25.45,0,*7C
1511600632.71,18134,11.75,73244.3,1.77,-25.29,-24.93,0,*73
1511600633.91,18135,11.75,73244.0,1.79,-24.97,-24.47,0,*71
1511600635.17,18136,11.75,73240.0,1.75,-24.67,-24.25,0,*75
1511600636.44,18137,11.75,73240.8,1.77,-24.67,-24.15,0,*75
1511600637.7,18138,11.75,73244.0,1.77,-24.51,-24.15,0,*7F
1511600638.97,18139,11.75,73248.0,1.77,-25.29,-24.83,0,*7F
1511600640.2,18140,11.75,73252.0,1.77,-25.13,-24.61,0,*74
1511600641.43,18141,11.75,73248.3,1.79,-25.13,-24.67,0,*7D
1511600642.63,18142,11.75,73246.8,1.79,-25.19,-24.77,0,*75
1511600643.86,18143,11.75,73248.5,1.79,-24.83,-24.35,0,*70
1511600645.05,18144,11.75,73246.8,1.79,-24.93,-24.47,0,*73
1511600646.3,18145,11.75,73246.0,1.79,-24.67,-24.15,0,*7E
1511600647.56,18146,11.75,73240.5,1.81,-24.47,-23.99,0,*7B
1511600648.78,18147,11.69,73238.0,1.79,-24.61,-24.15,0,*7A
1511600650.0,18148,11.69,73234.3,1.81,-24.97,-24.47,0,*7C
1511600651.25,18149,11.69,73242.3,1.81,-24.57,-23.99,0,*75
1511600652.49,18150,11.75,73248.5,1.81,-24.61,-23.99,0,*78
1511600653.77,18151,11.75,73246.5,1.85,-24.83,-24.25,0,*71
1511600655.03,18152,11.69,73236.3,1.83,-24.67,-24.21,0,*7A
1511600656.25,18153,11.69,73228.0,1.83,-24.57,-24.11,0,*7B
1511600657.51,18154,11.69,73226.5,1.83,-24.83,-24.21,0,*76
1511600658.78,18155,11.69,73224.3,1.85,-24.67,-24.11,0,*78
1511600660.06,18156,11.69,73238.5,1.85,-24.83,-24.25,0,*76
1511600661.28,18157,11.69,73244.3,1.83,-24.57,-24.11,0,*7F
1511600662.54,18158,11.69,73248.3,1.89,-24.67,-24.15,0,*7D
1511600663.77,18159,11.69,73254.8,1.89,-24.51,-24.05,0,*78
1511600665.02,18160,11.69,73240.8,1.89,-25.13,-24.67,0,*71
1511600666.24,18161,11.69,73208.0,1.89,-24.97,-24.61,0,*7B
1511600667.5,18162,11.69,73222.0,1.91,-26.17,-25.75,0,*7F
1511600668.78,18163,11.69,73220.5,1.89,-25.97,-25.45,0,*7F
1511600670.02,18164,11.69,73216.0,1.89,-25.19,-24.67,0,*7F
1511600671.27,18165,11.69,73216.0,1.85,-25.71,-25.19,0,*74
1511600672.5,18166,11.69,73230.0,1.83,-26.17,-25.65,0,*79
1511600673.71,18167,11.69,73242.5,1.83,-25.87,-25.39,0,*7B
1511600674.91,18168,11.69,73234.5,1.83,-25.87,-25.35,0,*78
1511600676.12,18169,11.69,73228.8,1.83,-25.91,-25.49,0,*75
1511600677.33,18170,11.69,73230.8,1.83,-26.03,-25.49,0,*75
1511600678.56,18171,11.69,73228.5,1.81,-25.39,-25.09,0,*78
1511600679.76,18172,11.69,73230.0,1.83,-25.49,-24.93,0,*7C
1511600680.99,18173,11.69,73234.0,1.83,-25.71,-25.19,0,*75
1511600682.27,18174,11.69,73232.3,1.81,-25.71,-25.29,0,*73
1511600683.52,18175,11.69,73238.8,1.81,-25.75,-25.39,0,*77
1511600684.75,18176,11.69,73226.5,1.81,-26.07,-25.61,0,*7F
1511600685.97,18177,11.69,73218.3,1.79,-26.03,-25.65,0,*79
1511600687.18,18178,11.69,73228.0,1.79,-25.61,-25.13,0,*70
1511600688.42,18179,11.69,73228.8,1.79,-26.17,-25.65,0,*72
1511600689.65,18180,11.69,73226.3,1.79,-26.33,-25.91,0,*79
1511600690.88,18181,11.69,73222.0,1.75,-26.33,-25.87,0,*73
1511600692.11,18182,11.69,73220.3,1.75,-26.55,-26.23,0,*7D
1511600693.39,18183,11.69,73224.3,1.77,-26.29,-25.81,0,*7E
1511600694.59,18184,11.69,73220.3,1.75,-25.87,-25.35,0,*73
1511600695.84,18185,11.69,73216.3,1.77,-25.45,-24.97,0,*77
1511600697.1,18186,11.69,73236.8,1.77,-25.75,-25.19,0,*70
1511600698.35,18187,11.69,73234.0,1.77,-25.35,-24.83,0,*77
1511600699.58,18188,11.69,73222.0,1.75,-25.03,-24.51,0,*70
1511600700.83,18189,11.69,73222.8,1.77,-25.35,-24.83,0,*79
1511600702.06,18190,11.69,73230.0,1.75,-25.55,-25.19,0,*77
1511600703.27,18191,11.69,73228.3,1.75,-25.65,-25.09,0,*74
1511600704.49,18192,11.69,73228.3,1.75,-25.23,-24.83,0,*76
1511600705.69,18193,11.69,73228.8,1.75,-24.97,-24.51,0,*76
1511600706.95,18194,11.69,73232.8,1.75,-24.67,-24.25,0,*7D
1511600708.2,18195,11.69,73228.5,1.77,-25.35,-24.83,0,*74
1511600709.42,18196,11.69,73218.0,1.77,-24.93,-24.61,0,*76
1511600710.65,18197,11.69,73220.8,1.77,-25.49,-25.13,0,*75
1511600711.89,18198,11.69,73228.0,1.75,-25.55,-25.09,0,*7E
1511600713.12,18199,11.69,73228.0,1.75,-25.23,-24.87,0,*79
1511600714.32,18200,11.69,73238.8,1.75,-25.39,-24.97,0,*70
1511600715.54,18201,11.69,73238.5,1.77,-24.93,-24.51,0,*78
1511600716.78,18202,11.69,73238.5,1.77,-25.19,-24.67,0,*7D
1511600717.99,18203,11.63,73230.5,1.79,-24.97,-24.61,0,*73
1511600719.23,18204,11.63,73230.0,1.79,-24.67,-24.15,0,*78
1511600720.46,18205,11.69,73234.8,1.79,-24.83,-24.35,0,*71
1511600721.66,18206,11.63,73222.5,1.79,-24.93,-24.47,0,*76
1511600722.86,18207,11.63,73222.0,1.79,-24.77,-24.31,0,*7C
1511600724.1,18208,11.69,73226.8,1.79,-24.61,-24.21,0,*75
1511600725.34,18209,11.69,73220.3,1.81,-25.29,-24.97,0,*73
1511600726.56,18210,11.63,73226.0,1.81,-25.09,-24.57,0,*75
1511600727.78,18211,11.63,73236.5,1.81,-24.97,-24.57,0,*72
1511600729.03,18212,11.63,73234.8,1.81,-25.23,-24.71,0,*7B
1511600730.23,18213,11.63,73232.0,1.79,-25.13,-24.77,0,*78
1511600731.42,18214,11.63,73234.5,1.83,-24.93,-24.57,0,*71
1511600732.64,18215,11.63,73232.5,1.81,-24.97,-24.47,0,*77
1511600733.89,18216,11.63,73234.0,1.81,-25.09,-24.71,0,*77
1511600735.12,18217,11.69,73242.0,1.81,-25.13,-24.77,0,*7B
1511600736.38,18218,11.63,73234.5,1.81,-25.55,-25.13,0,*75
1511600737.6,18219,11.63,73232.5,1.81,-25.39,-24.97,0,*73
1511600738.82,18220,11.63,73236.5,1.79,-25.45,-25.13,0,*78
1511600740.1,18221,11.63,73234.0,1.81,-25.75,-25.45,0,*7E
1511600741.32,18222,11.63,73234.5,1.81,-25.61,-25.23,0,*78
1511600742.54,18223,11.63,73236.0,1.81,-24.97,-24.57,0,*73
1511600743.76,18224,11.63,73232.3,1.81,-25.13,-24.77,0,*7B
1511600744.98,18225,11.63,73240.5,1.81,-24.97,-24.61,0,*70
1511600746.24,18226,11.63,73228.5,1.81,-25.97,-25.61,0,*73
1511600747.5,18227,11.63,73238.0,1.81,-26.07,-25.71,0,*79
1511600748.73,18228,11.63,73234.8,1.79,-26.45,-25.97,0,*7F
1511600749.96,18229,11.63,73234.8,1.79,-25.45,-25.13,0,*71
1511600751.17,18230,11.63,73232.0,1.79,-25.49,-25.13,0,*75
1511600752.42,18231,11.63,73234.5,1.79,-26.29,-25.81,0,*7A
1511600753.66,18232,11.63,73234.3,1.81,-25.29,-24.93,0,*7F
1511600754.9,18233,11.63,73236.0,1.79,-25.97,-25.61,0,*70
1511600756.11,18234,11.63,73244.3,1.79,-25.49,-25.19,0,*7B
1511600757.34,18235,11.63,73244.5,1.79,-25.65,-25.45,0,*7D
1511600758.54,18236,11.63,73254.5,1.79,-25.35,-24.97,0,*75
1511600759.77,18237,11.63,73252.5,1.79,-25.13,-24.83,0,*75
1511600760.99,18238,11.63,73252.0,1.77,-25.19,-24.97,0,*7B
1511600762.24,18239,11.63,73248.0,1.77,-25.29,-24.93,0,*7D
1511600763.43,18240,11.63,73242.5,1.79,-24.93,-24.51,0,*73
1511600764.63,18241,11.63,73238.3,1.79,-25.35,-24.97,0,*75
1511600765.88,18242,11.63,73236.5,1.81,-25.13,-24.87,0,*74
1511600767.11,18243,11.63,73234.0,1.81,-25.39,-25.09,0,*7A
1511600768.31,18244,11.63,73230.5,1.79,-25.13,-24.93,0,*70
1511600769.54,18245,11.63,73236.0,1.79,-25.19,-24.83,0,*7A
1511600770.74,18246,11.63,73242.8,1.79,-25.19,-24.93,0,*78
1511600771.96,18247,11.63,73240.3,1.81,-25.39,-25.09,0,*7E
1511600773.24,18248,11.63,73242.5,1.81,-25.75,-25.45,0,*71
1511600774.46,18249,11.63,73240.3,1.79,-25.29,-24.97,0,*70
1511600775.66,18250,11.63,73246.0,1.79,-25.09,-24.77,0,*74
1511600776.91,18251,11.63,73238.0,1.81,-25.13,-24.87,0,*76
1511600778.14,18252,11.63,73238.0,1.81,-25.13,-24.93,0,*70
1511600779.36,18253,11.63,73244.0,1.79,-25.29,-24.93,0,*7F
1511600780.58,18254,11.63,73236.0,1.81,-25.39,-24.93,0,*7E
1511600781.8,18255,11.56,73238.3,1.81,-25.23,-24.93,0,*74
1511600783.01,18256,11.63,73240.8,1.83,-24.93,-24.83,0,*7E
1511600784.26,18257,11.63,73248.3,1.81,-25.29,-24.93,0,*7C
1511600785.48,18258,11.63,73244.8,1.81,-25.39,-25.13,0,*7B
1511600786.74,18259,11.63,73244.0,1.81,-25.75,-25.61,0,*77
1511600787.94,18260,11.63,73242.8,1.83,-25.65,-25.35,0,*7F
1511600789.13,18261,11.63,73242.3,1.83,-25.23,-24.93,0,*71
1511600790.36,18262,11.56,73242.0,1.83,-25.23,-25.03,0,*7A
1511600791.58,18263,11.56,73240.5,1.81,-25.39,-25.13,0,*73
1511600792.86,18264,11.63,73244.3,1.81,-25.97,-25.75,0,*70
1511600794.11,18265,11.56,73242.5,1.81,-25.91,-25.71,0,*73
1511600795.36,18266,11.63,73236.0,1.81,-25.45,-25.39,0,*75
1511600796.62,18267,11.56,73232.3,1.79,-25.97,-25.75,0,*74
1511600797.86,18268,11.56,73238.5,1.79,-25.81,-25.65,0,*7D
1511600799.07,18269,11.56,73238.0,1.79,-25.65,-25.49,0,*78
1511600800.28,18270,11.56,73238.8,1.79,-25.49,-25.35,0,*75
1511600801.51,18271,11.56,73244.3,1.79,-25.49,-25.29,0,*79
1511600802.71,18272,11.56,73244.3,1.79,-25.61,-25.35,0,*7D
1511600803.94,18273,11.56,73240.3,1.79,-25.35,-25.03,0,*78
1511600805.14,18274,11.56,73238.8,1.79,-25.19,-24.97,0,*7D
1511600806.4,18275,11.56,73224.8,1.79,-26.33,-26.13,0,*79
1511600807.64,18276,11.56,73240.8,1.77,-26.03,-25.91,0,*7E
1511600808.92,18277,11.56,73242.0,1.77,-26.29,-26.13,0,*7E
1511600810.15,18278,11.56,73236.5,1.77,-26.61,-26.45,0,*7E
1511600811.4,18279,11.56,73232.8,1.75,-25.97,-25.81,0,*7C
1511600812.67,18280,11.56,73246.0,1.75,-25.71,-25.55,0,*7B
1511600813.88,18281,11.56,73252.5,1.75,-26.07,-26.03,0,*78
1511600815.11,18282,11.56,73246.0,1.75,-25.87,-25.81,0,*79
1511600816.38,18283,11.56,73244.0,1.75,-25.71,-25.71,0,*7E
1511600817.61,18284,11.56,73250.0,1.73,-26.49,-26.39,0,*78
1511600818.86,18285,11.56,73232.3,1.73,-26.65,-26.55,0,*7D
1511600820.11,18286,11.56,73236.0,1.73,-25.81,-25.91,0,*7C
1511600821.35,18287,11.56,73244.3,1.71,-26.55,-26.45,0,*7F
1511600822.58,18288,11.56,73246.8,1.71,-27.03,-27.03,0,*71
1511600823.81,18289,11.56,73248.8,1.69,-27.29,-27.19,0,*7A
1511600825.08,18290,11.56,73264.8,1.67,-27.45,-27.45,0,*7F
1511600826.36,18291,11.56,73246.3,1.67,-26.93,-26.81,0,*7D
1511600827.56,18292,11.56,73248.0,1.61,-27.29,-27.13,0,*72
1511600828.81,18293,11.56,73246.8,1.61,-26.71,-26.71,0,*7A
1511600830.09,18294,11.56,73244.0,1.59,-26.77,-26.77,0,*76
1511600831.31,18295,11.56,73246.3,1.57,-27.19,-27.07,0,*76
1511600832.56,18296,11.56,73246.0,1.57,-26.93,-26.93,0,*7A
1511600833.79,18297,11.56,73234.3,1.57,-26.93,-27.03,0,*73
1511600835.04,18298,11.56,73210.0,1.57,-27.45,-27.45,0,*74
1511600836.29,18299,11.56,73222.3,1.53,-27.83,-27.99,0,*7A
1511600837.54,18300,11.56,73240.3,1.53,-27.23,-27.23,0,*70
1511600838.81,18301,11.56,73242.0,1.51,-27.19,-27.35,0,*7D
1511600840.02,18302,11.56,73222.8,1.49,-27.51,-27.51,0,*79
1511600841.25,18303,11.56,73214.8,1.49,-27.61,-27.71,0,*79
1511600842.46,18304,11.56,73228.0,1.49,-27.07,-27.07,0,*7F
1511600843.69,18305,11.56,73266.8,1.47,-26.45,-26.39,0,*7B
1511600844.9,18306,11.56,73254.3,1.45,-26.65,-26.65,0,*71
1511600846.13,18307,11.56,73230.0,1.45,-27.83,-27.93,0,*71
1511600847.37,18308,11.56,73230.3,1.45,-28.25,-28.15,0,*7C
1511600848.63,18309,11.56,73226.0,1.43,-27.93,-28.25,0,*7A
1511600849.86,18310,11.56,73248.3,1.39,-28.37,-28.47,0,*7A
1511600851.11,18311,11.56,73254.8,1.35,-28.05,-28.09,0,*7C
1511600852.36,18312,11.5,73250.3,1.35,-28.09,-28.25,0,*7D
1511600853.56,18313,11.56,73254.5,1.35,-27.71,-27.77,0,*74
1511600854.77,18314,11.56,73252.8,1.31,-27.07,-27.13,0,*74
1511600856.03,18315,11.56,73264.8,1.31,-26.81,-26.81,0,*70
1511600857.25,18316,11.56,73276.0,1.31,-27.13,-27.23,0,*70
1511600858.49,18317,11.56,73260.3,1.31,-25.75,-25.65,0,*73
1511600859.74,18318,11.56,73258.8,1.31,-26.93,-26.93,0,*7D
1511600860.98,18319,11.56,73254.3,1.31,-27.61,-27.71,0,*7D
1511600862.21,18320,11.56,73270.5,1.29,-27.51,-27.67,0,*7A
1511600863.45,18321,11.56,73268.8,1.27,-26.71,-26.71,0,*70
1511600864.69,18322,11.5,73262.5,1.27,-26.97,-27.13,0,*7E
1511600865.89,18323,11.5,73264.5,1.27,-27.77,-27.67,0,*73
1511600867.14,18324,11.56,73240.0,1.25,-27.71,-27.83,0,*7A
1511600868.37,18325,11.56,73248.0,1.23,-27.35,-27.51,0,*72
1511600869.61,18326,11.5,73252.5,1.25,-27.19,-27.07,0,*7A
1511600870.84,18327,11.56,73258.8,1.23,-27.35,-27.55,0,*74
1511600872.12,18328,11.56,73258.3,1.21,-27.45,-27.61,0,*79
1511600873.37,18329,11.5,73256.5,1.17,-26.87,-26.97,0,*7A
1511600874.6,18330,11.5,73250.8,1.21,-27.13,-27.29,0,*7F
1511600875.88,18331,11.56,73254.0,1.17,-27.19,-27.35,0,*7C
1511600877.13,18332,11.5,73250.3,1.17,-26.61,-26.77,0,*76
1511600878.4,18333,11.5,73246.3,1.13,-26.65,-26.81,0,*7E
1511600879.65,18334,11.5,73244.0,1.15,-27.19,-27.35,0,*7B
1511600880.93,18335,11.5,73242.8,1.13,-27.35,-27.39,0,*7E
1511600882.2,18336,11.5,73236.3,1.13,-27.07,-27.23,0,*77
1511600883.45,18337,11.5,73222.3,1.13,-26.71,-26.87,0,*79
1511600884.69,18338,11.5,73222.3,1.13,-26.49,-26.65,0,*71
1511600885.97,18339,11.5,73218.0,1.13,-27.23,-27.23,0,*7E
1511600887.2,18340,11.56,73224.8,1.11,-27.35,-27.51,0,*70
1511600888.43,18341,11.5,73214.8,1.11,-27.39,-27.71,0,*7F
1511600889.68,18342,11.5,73214.5,1.09,-27.29,-27.45,0,*73
1511600890.91,18343,11.5,73214.3,1.09,-27.55,-27.71,0,*7E
1511600892.19,18344,11.5,73210.3,1.07,-27.19,-27.19,0,*71
1511600893.41,18345,11.5,73196.0,1.05,-27.35,-27.51,0,*70
1511600894.66,18346,11.5,73188.8,1.05,-27.83,-28.09,0,*7C
1511600895.87,18347,11.5,73208.3,1.05,-27.51,-27.67,0,*75
1511600897.13,18348,11.5,73198.0,1.05,-26.81,-26.93,0,*7C
1511600898.39,18349,11.5,73206.5,1.03,-27.07,-27.23,0,*7E
1511600899.61,18350,11.5,73206.8,1.01,-27.39,-27.55,0,*78
1511600900.86,18351,11.5,73206.0,1.01,-27.19,-27.39,0,*71
1511600902.09,18352,11.5,73204.3,1.01,-27.67,-27.83,0,*7A
1511600903.37,18353,11.5,73222.8,0.99,-27.45,-27.61,0,*47